Flag for Germany Weather past 2 weeks in Warburg, North Rhine-Westphalia, Germany

Now
52 °F

Passing clouds.


Feels Like: 49 °F
Forecast: 31 / 57 °F
Wind: 8 mph from North

Location: Kassel / Calden

Current Time: Apr 18, 2015 at 4:15:05 PM

Latest Report: Apr 18, 2015 at 3:20 PM


Visibility: N/A

Pressure: 30.27 "Hg

Humidity: 41%

Dew point: 28 °F

Location of WarburgLocation

Historic Weather in Warburg — Graph

°F

Warburg temperature yesterday

Maximum temperature yesterday: 50 °F (at 4:50 PM)
Minimum temperature yesterday: 39 °F (at 6:20 AM)
Average temperature yesterday: 45 °F

Past Weeks' High & Low Weather Summary

 TemperatureHumidityPressure
High73 °F (Apr 15, 3:50 PM)100% (Apr 9, 7:20 AM)30.60 "Hg (Apr 9, 7:20 AM)
Low28 °F (Apr 5, 6:50 AM)29% (Apr 15, 3:50 PM)29.92 "Hg (Apr 15, 6:20 PM)
Average49 °F63%30.23 "Hg
* Reported Apr 3 3:20 PM — Apr 18 3:20 PM, Warburg, Weather by CustomWeather, © 2015

Note: Actual official high and low records may vary slightly from our data, if they occured in-between our weather recording intervals... More about our weather records

Advertising

Warburg weather history for previous 24 hours

 ConditionsComfort  
Time TempWeatherWind HumidityBarometerVisibility
3:20 PM
Sat, Apr 18
52 °FPassing clouds.8 mph41%30.27 "HgN/A
2:50 PM50 °FScattered clouds.6 mph40%30.30 "HgN/A
2:20 PM48 °FScattered clouds.7 mph46%30.30 "HgN/A
1:50 PM48 °FPartly sunny.7 mph46%30.30 "HgN/A
1:20 PM50 °FPartly sunny.8 mph47%30.30 "HgN/A
12:50 PM48 °FPartly sunny.6 mph50%30.30 "HgN/A
12:20 PM48 °FPartly sunny.5 mph54%30.30 "HgN/A
11:50 AM46 °FPartly sunny.10 mph57%30.30 "HgN/A
11:20 AM48 °FScattered clouds.9 mph54%30.30 "HgN/A
10:50 AM45 °FPassing clouds.7 mph66%30.30 "HgN/A
10:20 AM45 °FPassing clouds.8 mph66%30.30 "HgN/A
9:50 AM43 °FPassing clouds.8 mph71%30.30 "HgN/A
9:20 AM41 °FPassing clouds.8 mph76%30.30 "HgN/A
8:50 AM41 °FSunny.8 mph81%30.27 "Hg10 mi
8:20 AM39 °FSunny.7 mph81%30.27 "Hg10 mi
7:50 AM37 °FSunny.6 mph87%30.27 "Hg10 mi
7:20 AM36 °FClear.5 mph93%30.27 "Hg10 mi
6:50 AM34 °FClear.2 mph93%30.24 "Hg10 mi
6:20 AM36 °FPassing clouds.8 mph87%30.24 "HgN/A
5:50 AM36 °FPassing clouds.8 mph87%30.21 "HgN/A
9:50 PM
Fri, Apr 17
41 °FClear.7 mph66%30.12 "Hg10 mi
9:20 PM41 °FSunny.7 mph66%30.09 "Hg10 mi
8:50 PM43 °FSunny.6 mph61%30.09 "Hg10 mi
8:20 PM45 °FSunny.7 mph61%30.07 "Hg10 mi
7:50 PM46 °FSunny.9 mph57%30.07 "Hg10 mi
7:20 PM46 °FScattered clouds.9 mph57%30.07 "HgN/A
6:50 PM48 °FScattered clouds.9 mph50%30.04 "HgN/A
6:20 PM48 °FSunny.14 mph50%30.04 "Hg10 mi
5:50 PM48 °FSunny.9 mph54%30.04 "Hg10 mi
5:20 PM48 °FPartly sunny.9 mph54%30.04 "HgN/A
4:50 PM50 °FPartly sunny.12 mph54%30.04 "HgN/A
4:20 PM48 °FPartly sunny.12 mph54%30.04 "HgN/A
Weather by CustomWeather, © 2015

See weather overviewHow to use our weather pages